This demonstration page uses our WeatherBlox Daily Observations layout. Learn more.

Hourly Observations for May 26, 2015

Temp ( °F °C ) Dew Point ( °F °C ) Humidity (%) Winds ( mph kmh ) Pressure ( in mb ) Visibility ( mi km ) Precip ( " mm )
12:15 am 00:15 Clear 59 15 49 9.7 71 71 W 10 17 29.74 1007 10 16.0934 0 0
12:35 am 00:35 Clear 59 15 49 9.7 71 71 W 9 15 29.74 1007 10 16.0934 0 0
12:55 am 00:55 Clear 57 14.1 50 10 77 77 WNW 8 13 29.74 1007 10 16.0934 0 0
1:15 am 01:15 Clear 57 14 52 11.1 83 83 NW 8 13 29.74 1007 10 16.0934 0 0
1:35 am 01:35 Clear 57 13.8 53 11.5 86 86 NW 9 15 29.74 1007 10 16.0934 0 0
1:55 am 01:55 Clear 57 13.8 53 11.7 87 87 NW 8 13 29.74 1007 10 16.0934 0 0
2:15 am 02:15 Clear 56 13.6 54 12 90 90 NW 9 15 29.74 1007 10 16.0934 0 0
2:35 am 02:35 Partly Cloudy 56 13.6 54 12 90 90 NNW 8 13 29.74 1007 10 16.0934 0 0
2:55 am 02:55 Mostly Cloudy 57 14 54 12.3 90 90 NW 10 17 29.74 1007 10 16.0934 0 0
3:15 am 03:15 Cloudy 57 14.1 54 12.3 89 89 NW 12 19 29.74 1007 10 16.0934 0 0
3:35 am 03:35 Partly Cloudy 56 13.6 54 12 90 90 NW 10 17 29.74 1007 10 16.0934 0 0
3:55 am 03:55 Mostly Cloudy 56 13.6 54 12 90 90 NW 9 15 29.8 1009 10 16.0934 0 0
4:15 am 04:15 Cloudy 57 14 54 12.1 88 88 NW 14 22 29.8 1009 10 16.0934 0 0
4:35 am 04:35 Cloudy 56 13.6 54 12 90 90 NW 13 20 29.8 1009 10 16.0934 0 0
4:55 am 04:55 Mostly Cloudy 56 13.5 53 11.7 89 89 NW 13 20 29.8 1009 10 16.0934 0 0
5:15 am 05:15 Cloudy 56 13.5 54 12 91 91 NW 12 19 29.8 1009 10 16.0934 0 0
5:35 am 05:35 Cloudy 56 13.6 54 12.1 91 91 NW 9 15 29.8 1009 10 16.0934 0 0
5:55 am 05:55 Cloudy 56 13.5 54 12.1 91 91 NW 9 15 29.8 1009 10 16.0934 0 0
6:15 am 06:15 Cloudy 56 13.1 54 12 93 93 NW 10 17 29.8 1009 10 16.0934 0 0
6:35 am 06:35 Cloudy 56 13.1 54 12 93 93 NW 9 15 29.83 1010 10 16.0934 0 0
6:55 am 06:55 Cloudy 56 13.4 54 12.2 93 93 NNW 10 17 29.83 1010 10 16.0934 0 0
7:15 am 07:15 Cloudy 57 13.7 55 12.5 93 93 NNW 10 17 29.83 1010 10 16.0934 0 0
7:35 am 07:35 Cloudy 57 14.1 55 12.6 91 91 NNW 10 17 29.83 1010 10 16.0934 0 0
7:55 am 07:55 Mostly Cloudy 58 14.5 54 12.3 87 87 NNW 13 20 29.8 1009 10 16.0934 0 0
8:15 am 08:15 Partly Cloudy 58 14.2 54 12.1 87 87 NNW 12 19 29.85 1011 10 16.0934 0 0
8:35 am 08:35 Partly Cloudy 58 14.5 53 11.7 83 83 N 14 22 29.83 1010 10 16.0934 0 0
8:55 am 08:55 Partly Cloudy 59 15.2 51 10.8 75 75 NNW 15 24 29.88 1012 10 16.0934 0 0
9:15 am 09:15 Partly Cloudy 59 14.9 51 10.4 75 75 NNW 14 22 29.88 1012 10 16.0934 0 0
9:35 am 09:35 Mostly Cloudy 59 14.8 51 10.3 75 75 NNW 14 22 29.88 1012 10 16.0934 0 0
9:55 am 09:55 Mostly Cloudy 61 16 51 10.7 71 71 NNW 13 20 29.85 1011 10 16.0934 0 0
10:15 am 10:15 Partly Cloudy 61 16.1 50 9.9 67 67 NNW 16 26 29.88 1012 10 16.0934 0 0
10:35 am 10:35 Partly Cloudy 61 16.3 50 9.8 66 66 NNW 14 22 29.85 1011 10 16.0934 0 0
10:55 am 10:55 Mostly Cloudy 62 16.9 50 10.2 65 65 NW 14 22 29.88 1012 10 16.0934 0 0
11:15 am 11:15 Mostly Cloudy 63 17 50 9.9 63 63 NW 13 20 29.88 1012 10 16.0934 0 0
11:35 am 11:35 Partly Cloudy 64 17.5 50 10.1 62 62 NW 10 17 29.88 1012 10 16.0934 0 0
11:55 am 11:55 Mostly Cloudy 64 17.6 50 9.9 61 61 NW 14 22 29.88 1012 10 16.0934 0 0
12:15 pm 12:15 Partly Cloudy 63 17.3 49 9.7 61 61 NW 14 22 29.88 1012 10 16.0934 0 0
12:35 pm 12:35 Partly Cloudy 65 18.1 50 10.2 60 60 NNW 14 22 29.91 1013 10 16.0934 0 0
12:55 pm 12:55 Mostly Cloudy 63 17.3 49 9.7 61 61 NNW 14 22 29.91 1013 10 16.0934 0 0
1:15 pm 13:15 Cloudy 62 16.8 49 9.2 61 61 NW 14 22 29.91 1013 10 16.0934 0 0
1:35 pm 13:35 Mostly Cloudy 64 17.5 48 9.1 58 58 NW 15 24 29.91 1013 10 16.0934 0 0
1:55 pm 13:55 Cloudy 63 17.4 48 9 58 58 NW 13 20 29.91 1013 10 16.0934 0 0
2:15 pm 14:15 Mostly Cloudy 65 18.1 48 8.8 55 55 NNW 14 22 29.91 1013 10 16.0934 0 0
2:35 pm 14:35 Mostly Cloudy 66 19 49 9.6 55 55 NW 15 24 29.91 1013 10 16.0934 0 0
2:55 pm 14:55 Partly Cloudy 67 19.2 49 9.4 53 53 WNW 10 17 29.85 1011 10 16.0934 0 0
3:15 pm 15:15 Partly Cloudy 67 19.6 49 9.5 52 52 NW 13 20 29.88 1012 10 16.0934 0 0
3:35 pm 15:35 Partly Cloudy 68 20.2 48 8.9 48 48 N 8 13 29.85 1011 10 16.0934 0 0
3:55 pm 15:55 Partly Cloudy 69 20.6 47 8.1 45 45 NNW 12 19 29.85 1011 10 16.0934 0 0
4:15 pm 16:15 Mostly Cloudy 69 20.7 46 7.9 44 44 N 13 20 29.85 1011 10 16.0934 0 0
4:35 pm 16:35 Partly Cloudy 71 21.4 47 8.1 43 43 N 18 30 29.85 1011 10 16.0934 0 0
4:55 pm 16:55 Partly Cloudy 69 20.7 45 7.4 42 42 NNW 13 20 29.85 1011 10 16.0934 0 0
5:15 pm 17:15 Partly Cloudy 70 20.9 46 7.9 43 43 N 10 17 29.88 1012 10 16.0934 0 0
5:35 pm 17:35 Partly Cloudy 69 20.5 45 7.4 43 43 N 12 19 29.88 1012 10 16.0934 0 0
5:55 pm 17:55 Sunny 70 20.9 45 7.3 42 42 N 13 20 29.88 1012 10 16.0934 0 0
6:15 pm 18:15 Partly Cloudy 68 20.1 46 7.5 44 44 N 10 17 29.88 1012 10 16.0934 0 0
6:35 pm 18:35 Partly Cloudy 70 21.2 45 7.4 41 41 N 10 17 29.88 1012 10 16.0934 0 0
6:55 pm 18:55 Partly Cloudy 69 20.3 45 7 42 42 NNW 7 11 29.88 1012 10 16.0934 0 0
7:15 pm 19:15 Sunny 68 20.2 45 7.4 44 44 NW 5 7 29.88 1012 10 16.0934 0 0
7:35 pm 19:35 Sunny 68 20 45 7.2 44 44 N 7 11 29.88 1012 10 16.0934 0 0
7:55 pm 19:55 Sunny 68 20.1 46 7.7 45 45 N 6 9 29.88 1012 10 16.0934 0 0
8:15 pm 20:15 Sunny 67 19.5 47 8.2 48 48 N 6 9 29.88 1012 10 16.0934 0 0
8:35 pm 20:35 Sunny 65 18.4 47 8.6 53 53 NNE 5 7 29.91 1013 10 16.0934 0 0
8:55 pm 20:55 Sunny 63 17.2 47 8.4 56 56 NNE 3 6 29.94 1014 10 16.0934 0 0
9:15 pm 21:15 Clear 62 16.7 47 8.5 59 59 Calm 29.94 1014 10 16.0934 0 0
9:35 pm 21:35 Clear 62 16.5 47 8.5 59 59 Calm 29.94 1014 10 16.0934 0 0
9:55 pm 21:55 Clear 58 14.5 49 9.2 71 71 Calm 29.97 1015 10 16.0934 0 0
10:15 pm 22:15 Clear 57 13.7 49 9.2 74 74 WNW 3 6 29.97 1015 10 16.0934 0 0
10:35 pm 22:35 Clear 58 14.5 48 9 70 70 Calm 30 1016 10 16.0934 0 0
10:55 pm 22:55 Clear 58 14.4 49 9.2 71 71 Calm 30 1016 10 16.0934 0 0
11:15 pm 23:15 Clear 55 12.7 49 9.2 79 79 Calm 30 1016 10 16.0934 0 0
11:35 pm 23:35 Clear 55 13 49 9.2 78 78 Calm 30 1016 10 16.0934 0 0
11:55 pm 23:55 Clear 55 12.6 49 9.2 80 80 Calm 30 1016 10 16.0934 0 0

Powered by AerisWeather